| time (UTC) | temp C | wind direction | speed KPH | gust KPH | rain 1hr cm | rain 24hr cm | rain mn cm | humidity % | barometer mb |
| 20260509000503 | 16 | 138 | 0.0 | 0.0 | 0.00 | 0.00 | 0.00 | 39 | 1004.8 |
| 20260508235958 | 16 | 222 | 0.0 | 0.0 | 0.00 | 0.00 | 0.00 | 39 | 1004.7 |
| 20260508235456 | 16 | 183 | 0.0 | 0.0 | 0.00 | 0.00 | 0.00 | 39 | 1004.7 |
| 20260508234952 | 16 | 195 | 0.0 | 0.0 | 0.00 | 0.00 | 0.00 | 38 | 1004.9 |
| 20260508234449 | 16 | 255 | 0.0 | 1.6 | 0.00 | 0.00 | 0.00 | 38 | 1004.8 |
| 20260508233947 | 16 | 271 | 0.0 | 0.0 | 0.00 | 0.00 | 0.00 | 38 | 1004.7 |
| 20260508233446 | 16 | 171 | 0.0 | 1.6 | 0.00 | 0.00 | 0.00 | 36 | 1004.9 |
| 20260508232943 | 16 | 324 | 3.2 | 8.0 | 0.00 | 0.00 | 0.00 | 36 | 1004.7 |
| 20260508232440 | 16 | 251 | 1.6 | 1.6 | 0.00 | 0.00 | 0.00 | 36 | 1004.9 |
| 20260508231937 | 16 | 154 | 0.0 | 0.0 | 0.00 | 0.00 | 0.00 | 38 | 1004.6 |
| 20260508231434 | 16 | 309 | 1.6 | 1.6 | 0.00 | 0.00 | 0.00 | 37 | 1004.5 |
| 20260508230931 | 17 | 217 | 0.0 | 0.0 | 0.00 | 0.00 | 0.00 | 35 | 1004.9 |
| 20260508230427 | 17 | 125 | 3.2 | 3.2 | 0.00 | 0.00 | 0.00 | 35 | 1005.1 |
| 20260508225924 | 17 | 269 | 1.6 | 1.6 | 0.00 | 0.00 | 0.00 | 36 | 1004.6 |
| 20260508225421 | 17 | 169 | 1.6 | 1.6 | 0.00 | 0.00 | 0.00 | 36 | 1004.9 |
| 20260508224919 | 17 | 163 | 0.0 | 0.0 | 0.00 | 0.00 | 0.00 | 35 | 1005.0 |
| 20260508224416 | 17 | 278 | 0.0 | 0.0 | 0.00 | 0.00 | 0.00 | 36 | 1004.8 |
| 20260508223913 | 17 | 354 | 4.8 | 4.8 | 0.00 | 0.00 | 0.00 | 35 | 1004.7 |
| 20260508223411 | 17 | 223 | 0.0 | 0.0 | 0.00 | 0.00 | 0.00 | 36 | 1004.7 |
| 20260508222908 | 17 | 201 | 0.0 | 0.0 | 0.00 | 0.00 | 0.00 | 35 | 1004.7 |
| 20260508222405 | 17 | 251 | 0.0 | 0.0 | 0.00 | 0.00 | 0.00 | 35 | 1005.0 |
| 20260508221902 | 17 | 290 | 0.0 | 0.0 | 0.00 | 0.00 | 0.00 | 35 | 1005.0 |
| 20260508221357 | 17 | 164 | 0.0 | 0.0 | 0.00 | 0.00 | 0.00 | 35 | 1004.9 |
| 20260508220854 | 17 | 339 | 1.6 | 1.6 | 0.00 | 0.00 | 0.00 | 33 | 1005.1 |
| 20260508220350 | 18 | 182 | 3.2 | 3.2 | 0.00 | 0.00 | 0.00 | 33 | 1005.1 |
| 20260508215847 | 18 | 156 | 1.6 | 3.2 | 0.00 | 0.00 | 0.00 | 32 | 1005.1 |
| 20260508215344 | 18 | 176 | 1.6 | 1.6 | 0.00 | 0.00 | 0.00 | 34 | 1004.9 |
| 20260508214840 | 18 | 316 | 1.6 | 1.6 | 0.00 | 0.00 | 0.00 | 37 | 1005.1 |
| 20260508214338 | 18 | 188 | 0.0 | 0.0 | 0.00 | 0.00 | 0.00 | 35 | 1005.2 |
| 20260508213834 | 17 | 279 | 0.0 | 1.6 | 0.00 | 0.00 | 0.00 | 34 | 1005.1 |
| 20260508213332 | 17 | 162 | 0.0 | 0.0 | 0.00 | 0.00 | 0.00 | 35 | 1005.0 |
| 20260508212827 | 18 | 0 | 1.6 | 3.2 | 0.00 | 0.00 | 0.00 | 35 | 1005.3 |
| 20260508212324 | 18 | 112 | 0.0 | 0.0 | 0.00 | 0.00 | 0.00 | 35 | 1005.2 |
| 20260508211820 | 18 | 161 | 0.0 | 1.6 | 0.00 | 0.00 | 0.00 | 35 | 1005.0 |
| 20260508211315 | 18 | 124 | 1.6 | 1.6 | 0.00 | 0.00 | 0.00 | 35 | 1005.3 |
| 20260508210813 | 18 | 133 | 1.6 | 1.6 | 0.00 | 0.00 | 0.00 | 34 | 1005.3 |
| 20260508210310 | 18 | 349 | 1.6 | 1.6 | 0.00 | 0.00 | 0.00 | 35 | 1005.1 |
| 20260508205807 | 19 | 325 | 1.6 | 4.8 | 0.00 | 0.00 | 0.00 | 32 | 1005.4 |
| 20260508205306 | 20 | 317 | 1.6 | 1.6 | 0.00 | 0.00 | 0.00 | 32 | 1005.4 |
| 20260508204759 | 20 | 150 | 3.2 | 4.8 | 0.00 | 0.00 | 0.00 | 31 | 1005.4 |
| 20260508204256 | 20 | 219 | 0.0 | 0.0 | 0.00 | 0.00 | 0.00 | 32 | 1005.5 |
| 20260508203752 | 20 | 263 | 1.6 | 3.2 | 0.00 | 0.00 | 0.00 | 31 | 1005.4 |
| 20260508203249 | 20 | 291 | 3.2 | 3.2 | 0.00 | 0.00 | 0.00 | 33 | 1005.4 |
| 20260508202744 | 19 | 154 | 0.0 | 1.6 | 0.00 | 0.00 | 0.00 | 33 | 1005.5 |
| 20260508202242 | 20 | 319 | 1.6 | 3.2 | 0.00 | 0.00 | 0.00 | 31 | 1005.6 |
| 20260508201739 | 20 | 127 | 3.2 | 3.2 | 0.00 | 0.00 | 0.00 | 31 | 1005.8 |
| 20260508201235 | 20 | 177 | 0.0 | 1.6 | 0.00 | 0.00 | 0.00 | 30 | 1005.8 |
| 20260508200732 | 20 | 307 | 4.8 | 4.8 | 0.00 | 0.00 | 0.00 | 29 | 1005.8 |
| 20260508200228 | 20 | 171 | 1.6 | 3.2 | 0.00 | 0.00 | 0.00 | 30 | 1005.9 |
| 20260508195725 | 20 | 164 | 3.2 | 3.2 | 0.00 | 0.00 | 0.00 | 31 | 1005.9 |
| 20260508195221 | 20 | 140 | 1.6 | 1.6 | 0.00 | 0.00 | 0.00 | 30 | 1006.4 |
| 20260508194718 | 20 | 91 | 1.6 | 1.6 | 0.00 | 0.00 | 0.00 | 31 | 1006.5 |
| 20260508194215 | 20 | 237 | 1.6 | 1.6 | 0.00 | 0.00 | 0.00 | 30 | 1006.5 |
| 20260508193712 | 19 | 157 | 1.6 | 4.8 | 0.00 | 0.00 | 0.00 | 32 | 1006.4 |
| 20260508193209 | 19 | 341 | 3.2 | 4.8 | 0.00 | 0.00 | 0.00 | 30 | 1006.3 |
| 20260508192705 | 19 | 139 | 1.6 | 3.2 | 0.00 | 0.00 | 0.00 | 31 | 1006.6 |
| 20260508192202 | 19 | 116 | 1.6 | 3.2 | 0.00 | 0.00 | 0.00 | 31 | 1006.8 |
| 20260508191700 | 18 | 305 | 3.2 | 4.8 | 0.00 | 0.00 | 0.00 | 33 | 1006.9 |
| 20260508191156 | 19 | 220 | 0.0 | 0.0 | 0.00 | 0.00 | 0.00 | 33 | 1006.6 |
| 20260508190654 | 19 | 159 | 1.6 | 3.2 | 0.00 | 0.00 | 0.00 | 33 | 1006.9 |
| 20260508190149 | 18 | 159 | 0.0 | 1.6 | 0.00 | 0.00 | 0.00 | 33 | 1007.1 |
| 20260508185647 | 18 | 143 | 1.6 | 1.6 | 0.00 | 0.00 | 0.00 | 35 | 1007.0 |
| 20260508185144 | 18 | 316 | 3.2 | 8.0 | 0.00 | 0.00 | 0.00 | 32 | 1007.4 |
| 20260508184641 | 18 | 32 | 3.2 | 3.2 | 0.00 | 0.00 | 0.00 | 31 | 1007.3 |
| 20260508184138 | 18 | 283 | 1.6 | 1.6 | 0.00 | 0.00 | 0.00 | 32 | 1007.0 |
| 20260508183635 | 18 | 306 | 4.8 | 4.8 | 0.00 | 0.00 | 0.00 | 35 | 1007.3 |
| 20260508183131 | 19 | 112 | 1.6 | 1.6 | 0.00 | 0.00 | 0.00 | 33 | 1007.4 |
| 20260508182627 | 18 | 212 | 0.0 | 1.6 | 0.00 | 0.00 | 0.00 | 36 | 1007.7 |
| 20260508182124 | 18 | 25 | 0.0 | 1.6 | 0.00 | 0.00 | 0.00 | 34 | 1007.6 |
| 20260508181619 | 18 | 148 | 4.8 | 4.8 | 0.00 | 0.00 | 0.00 | 33 | 1007.7 |
| 20260508181117 | 18 | 287 | 3.2 | 3.2 | 0.00 | 0.00 | 0.00 | 34 | 1007.6 |
| 20260508180613 | 18 | 135 | 1.6 | 3.2 | 0.00 | 0.00 | 0.00 | 33 | 1007.4 |
| 20260508180110 | 18 | 174 | 1.6 | 1.6 | 0.00 | 0.00 | 0.00 | 34 | 1007.4 |
| 20260508175607 | 18 | 342 | 3.2 | 3.2 | 0.00 | 0.00 | 0.00 | 32 | 1007.7 |
| 20260508175104 | 18 | 149 | 0.0 | 1.6 | 0.00 | 0.00 | 0.00 | 34 | 1007.6 |
| 20260508174601 | 18 | 283 | 1.6 | 1.6 | 0.00 | 0.00 | 0.00 | 33 | 1007.9 |
| 20260508174058 | 18 | 124 | 0.0 | 1.6 | 0.00 | 0.00 | 0.00 | 31 | 1008.0 |
| 20260508173555 | 18 | 70 | 1.6 | 3.2 | 0.00 | 0.00 | 0.00 | 32 | 1008.1 |
| 20260508173051 | 18 | 162 | 3.2 | 3.2 | 0.00 | 0.00 | 0.00 | 31 | 1008.1 |
| 20260508172548 | 18 | 152 | 1.6 | 1.6 | 0.00 | 0.00 | 0.00 | 32 | 1008.4 |
| 20260508172045 | 18 | 204 | 1.6 | 3.2 | 0.00 | 0.00 | 0.00 | 31 | 1008.2 |
| 20260508171541 | 18 | 122 | 0.0 | 0.0 | 0.00 | 0.00 | 0.00 | 31 | 1008.5 |
| 20260508171038 | 18 | 21 | 3.2 | 3.2 | 0.00 | 0.00 | 0.00 | 34 | 1008.6 |
| 20260508170535 | 17 | 116 | 0.0 | 1.6 | 0.00 | 0.00 | 0.00 | 32 | 1008.5 |
| 20260508170032 | 18 | 302 | 1.6 | 3.2 | 0.00 | 0.00 | 0.00 | 31 | 1008.6 |
| 20260508165530 | 18 | 59 | 0.0 | 0.0 | 0.00 | 0.00 | 0.00 | 31 | 1008.8 |
| 20260508165026 | 18 | 121 | 0.0 | 1.6 | 0.00 | 0.00 | 0.00 | 34 | 1008.8 |
| 20260508164523 | 17 | 217 | 0.0 | 0.0 | 0.00 | 0.00 | 0.00 | 33 | 1008.9 |
| 20260508164020 | 16 | 21 | 0.0 | 1.6 | 0.00 | 0.00 | 0.00 | 34 | 1009.0 |
| 20260508163517 | 17 | 137 | 3.2 | 3.2 | 0.00 | 0.00 | 0.00 | 35 | 1009.1 |
| 20260508163013 | 16 | 296 | 1.6 | 1.6 | 0.00 | 0.00 | 0.00 | 34 | 1009.2 |
| 20260508162510 | 16 | 103 | 1.6 | 1.6 | 0.00 | 0.00 | 0.00 | 35 | 1009.1 |
| 20260508162008 | 16 | 235 | 1.6 | 1.6 | 0.00 | 0.00 | 0.00 | 36 | 1009.2 |
| 20260508161504 | 17 | 292 | 3.2 | 3.2 | 0.00 | 0.00 | 0.00 | 34 | 1009.3 |
| 20260508161001 | 16 | 269 | 0.0 | 0.0 | 0.00 | 0.00 | 0.00 | 34 | 1009.2 |
| 20260508160500 | 16 | 151 | 0.0 | 1.6 | 0.00 | 0.00 | 0.00 | 35 | 1009.4 |
| 20260508155956 | 16 | 327 | 1.6 | 1.6 | 0.00 | 0.00 | 0.00 | 33 | 1009.5 |
| 20260508155454 | 16 | 12 | 0.0 | 0.0 | 0.00 | 0.00 | 0.00 | 36 | 1009.5 |
| 20260508154950 | 17 | 298 | 1.6 | 1.6 | 0.00 | 0.00 | 0.00 | 36 | 1009.3 |
| 20260508154448 | 16 | 90 | 3.2 | 3.2 | 0.00 | 0.00 | 0.00 | 36 | 1009.4 |
| 20260508153944 | 16 | 168 | 1.6 | 3.2 | 0.00 | 0.00 | 0.00 | 38 | 1009.5 |
| 20260508153441 | 16 | 162 | 1.6 | 1.6 | 0.00 | 0.00 | 0.00 | 39 | 1009.3 |
| 20260508152937 | 16 | 347 | 1.6 | 3.2 | 0.00 | 0.00 | 0.00 | 39 | 1009.7 |
| 20260508152434 | 16 | 146 | 1.6 | 1.6 | 0.00 | 0.00 | 0.00 | 39 | 1009.8 |
| 20260508151931 | 17 | 291 | 1.6 | 1.6 | 0.00 | 0.00 | 0.00 | 39 | 1009.7 |
| 20260508151427 | 15 | 328 | 1.6 | 1.6 | 0.00 | 0.00 | 0.00 | 43 | 1009.7 |
| 20260508150924 | 15 | 254 | 0.0 | 1.6 | 0.00 | 0.00 | 0.00 | 46 | 1009.7 |
| 20260508150421 | 15 | 317 | 0.0 | 0.0 | 0.00 | 0.00 | 0.00 | 43 | 1009.7 |
| 20260508145916 | 15 | 320 | 1.6 | 1.6 | 0.00 | 0.00 | 0.00 | 42 | 1009.8 |
| 20260508145413 | 15 | 283 | 0.0 | 1.6 | 0.00 | 0.00 | 0.00 | 45 | 1009.8 |
| 20260508144910 | 15 | 322 | 3.2 | 4.8 | 0.00 | 0.00 | 0.00 | 42 | 1009.8 |
| 20260508144408 | 15 | 337 | 3.2 | 3.2 | 0.00 | 0.00 | 0.00 | 40 | 1010.1 |
| 20260508143905 | 15 | 1 | 1.6 | 1.6 | 0.00 | 0.00 | 0.00 | 43 | 1009.8 |
| 20260508143402 | 14 | 325 | 0.0 | 0.0 | 0.00 | 0.00 | 0.00 | 41 | 1009.8 |
| 20260508142859 | 14 | 201 | 0.0 | 1.6 | 0.00 | 0.00 | 0.00 | 40 | 1010.1 |
| 20260508142356 | 13 | 265 | 0.0 | 0.0 | 0.00 | 0.00 | 0.00 | 46 | 1009.9 |
| 20260508141852 | 13 | 301 | 0.0 | 0.0 | 0.00 | 0.00 | 0.00 | 49 | 1010.2 |
| 20260508141349 | 13 | 305 | 1.6 | 1.6 | 0.00 | 0.00 | 0.00 | 47 | 1010.1 |
| 20260508140847 | 13 | 299 | 0.0 | 0.0 | 0.00 | 0.00 | 0.00 | 50 | 1010.5 |
| 20260508140343 | 13 | 313 | 1.6 | 1.6 | 0.00 | 0.00 | 0.00 | 49 | 1010.4 |
| 20260508135839 | 13 | 313 | 1.6 | 1.6 | 0.00 | 0.00 | 0.00 | 49 | 1010.2 |
| 20260508135336 | 13 | 304 | 1.6 | 1.6 | 0.00 | 0.00 | 0.00 | 50 | 1010.2 |
| 20260508134832 | 12 | 313 | 0.0 | 0.0 | 0.00 | 0.00 | 0.00 | 57 | 1010.4 |
| 20260508134329 | 12 | 330 | 0.0 | 0.0 | 0.00 | 0.00 | 0.00 | 55 | 1010.4 |
| 20260508133825 | 12 | 335 | 1.6 | 1.6 | 0.00 | 0.00 | 0.00 | 56 | 1010.3 |
| 20260508133323 | 11 | 319 | 0.0 | 0.0 | 0.00 | 0.00 | 0.00 | 62 | 1010.3 |
| 20260508132820 | 10 | 240 | 0.0 | 0.0 | 0.00 | 0.00 | 0.00 | 67 | 1010.5 |
| 20260508132318 | 10 | 308 | 1.6 | 1.6 | 0.00 | 0.00 | 0.00 | 68 | 1010.5 |
| 20260508131814 | 10 | 315 | 0.0 | 0.0 | 0.00 | 0.00 | 0.00 | 67 | 1010.5 |
| 20260508131310 | 9 | 217 | 0.0 | 0.0 | 0.00 | 0.00 | 0.00 | 72 | 1010.5 |
| 20260508130806 | 8 | 271 | 0.0 | 0.0 | 0.00 | 0.00 | 0.00 | 73 | 1010.3 |
| 20260508130304 | 8 | 167 | 0.0 | 0.0 | 0.00 | 0.00 | 0.00 | 76 | 1010.4 |
| 20260508125800 | 8 | 245 | 0.0 | 0.0 | 0.00 | 0.00 | 0.00 | 79 | 1010.4 |
| 20260508125256 | 7 | 227 | 0.0 | 0.0 | 0.00 | 0.00 | 0.00 | 80 | 1010.3 |
| 20260508124754 | 7 | 237 | 0.0 | 0.0 | 0.00 | 0.00 | 0.00 | 85 | 1010.7 |
| 20260508124251 | 7 | 246 | 0.0 | 0.0 | 0.00 | 0.00 | 0.00 | 90 | 1010.4 |
| 20260508123749 | 6 | 261 | 0.0 | 0.0 | 0.00 | 0.00 | 0.00 | 95 | 1010.2 |
| 20260508123247 | 6 | 278 | 0.0 | 0.0 | 0.00 | 0.00 | 0.00 | 98 | 1010.3 |
| 20260508122743 | 6 | 230 | 0.0 | 0.0 | 0.00 | 0.00 | 0.00 | 98 | 1010.3 |
| 20260508122240 | 5 | 241 | 0.0 | 0.0 | 0.00 | 0.00 | 0.00 | 99 | 1010.2 |
| 20260508121737 | 5 | 254 | 0.0 | 0.0 | 0.00 | 0.00 | 0.00 | 99 | 1009.8 |
| 20260508121235 | 5 | 272 | 0.0 | 0.0 | 0.00 | 0.00 | 0.00 | 99 | 1009.8 |
| 20260508120733 | 5 | 237 | 0.0 | 0.0 | 0.00 | 0.00 | 0.00 | 99 | 1009.9 |
| 20260508120231 | 5 | 259 | 0.0 | 0.0 | 0.00 | 0.00 | 0.00 | 99 | 1010.2 |
| 20260508115728 | 4 | 245 | 0.0 | 0.0 | 0.00 | 0.00 | 0.00 | 99 | 1009.9 |
| 20260508115225 | 3 | 228 | 0.0 | 0.0 | 0.00 | 0.00 | 0.00 | 99 | 1009.7 |
| 20260508114722 | 3 | 239 | 0.0 | 0.0 | 0.00 | 0.00 | 0.00 | 98 | 1009.7 |
| 20260508114218 | 3 | 240 | 0.0 | 0.0 | 0.00 | 0.00 | 0.00 | 98 | 1009.9 |
| 20260508113715 | 2 | 247 | 0.0 | 0.0 | 0.00 | 0.00 | 0.00 | 98 | 1009.8 |
| 20260508113214 | 2 | 247 | 0.0 | 0.0 | 0.00 | 0.00 | 0.00 | 98 | 1009.5 |
| 20260508112709 | 2 | 248 | 0.0 | 0.0 | 0.00 | 0.00 | 0.00 | 98 | 1009.6 |
| 20260508112206 | 2 | 247 | 0.0 | 0.0 | 0.00 | 0.00 | 0.00 | 98 | 1009.6 |
| 20260508111703 | 2 | 247 | 0.0 | 0.0 | 0.00 | 0.00 | 0.00 | 98 | 1009.4 |
| 20260508111201 | 2 | 247 | 0.0 | 0.0 | 0.00 | 0.00 | 0.00 | 98 | 1009.4 |
| 20260508110658 | 2 | 246 | 0.0 | 0.0 | 0.00 | 0.00 | 0.00 | 97 | 1009.3 |
| 20260508110154 | 2 | 246 | 0.0 | 0.0 | 0.00 | 0.00 | 0.00 | 97 | 1009.5 |
| 20260508105649 | 2 | 247 | 0.0 | 0.0 | 0.00 | 0.00 | 0.00 | 97 | 1009.2 |
| 20260508105146 | 2 | 247 | 0.0 | 0.0 | 0.00 | 0.00 | 0.00 | 97 | 1009.5 |
| 20260508104644 | 2 | 246 | 0.0 | 0.0 | 0.00 | 0.00 | 0.00 | 97 | 1009.6 |
| 20260508104140 | 2 | 247 | 0.0 | 0.0 | 0.00 | 0.00 | 0.00 | 97 | 1009.2 |
| 20260508103638 | 2 | 247 | 0.0 | 0.0 | 0.00 | 0.00 | 0.00 | 97 | 1009.4 |
| 20260508103135 | 2 | 246 | 0.0 | 0.0 | 0.00 | 0.00 | 0.00 | 96 | 1009.3 |
| 20260508102632 | 2 | 246 | 0.0 | 0.0 | 0.00 | 0.00 | 0.00 | 96 | 1009.1 |
| 20260508102130 | 2 | 246 | 0.0 | 0.0 | 0.00 | 0.00 | 0.00 | 96 | 1009.2 |
| 20260508101622 | 2 | 246 | 0.0 | 0.0 | 0.00 | 0.00 | 0.00 | 96 | 1009.1 |
| 20260508101119 | 2 | 246 | 0.0 | 0.0 | 0.00 | 0.00 | 0.00 | 96 | 1009.2 |
| 20260508100617 | 2 | 246 | 0.0 | 0.0 | 0.00 | 0.00 | 0.00 | 96 | 1009.2 |
| 20260508100114 | 3 | 246 | 0.0 | 0.0 | 0.00 | 0.00 | 0.00 | 95 | 1009.4 |
| 20260508095611 | 3 | 246 | 0.0 | 0.0 | 0.00 | 0.00 | 0.00 | 95 | 1009.4 |
| 20260508095108 | 3 | 246 | 0.0 | 0.0 | 0.00 | 0.00 | 0.00 | 95 | 1009.2 |
| 20260508094605 | 3 | 246 | 0.0 | 0.0 | 0.00 | 0.00 | 0.00 | 95 | 1009.3 |
| 20260508094101 | 3 | 246 | 0.0 | 0.0 | 0.00 | 0.00 | 0.00 | 95 | 1009.2 |
| 20260508093559 | 3 | 223 | 0.0 | 0.0 | 0.00 | 0.00 | 0.00 | 95 | 1009.3 |
| 20260508093057 | 3 | 223 | 0.0 | 0.0 | 0.00 | 0.00 | 0.00 | 95 | 1009.3 |
| 20260508092553 | 3 | 225 | 0.0 | 0.0 | 0.00 | 0.00 | 0.00 | 95 | 1009.2 |
| 20260508092052 | 3 | 229 | 0.0 | 0.0 | 0.00 | 0.00 | 0.00 | 94 | 1009.3 |
| 20260508091549 | 4 | 219 | 0.0 | 0.0 | 0.00 | 0.00 | 0.00 | 94 | 1009.4 |
| 20260508091046 | 4 | 216 | 0.0 | 0.0 | 0.00 | 0.00 | 0.00 | 94 | 1009.2 |
| 20260508090544 | 4 | 232 | 0.0 | 0.0 | 0.00 | 0.00 | 0.00 | 94 | 1009.4 |
| 20260508090040 | 4 | 223 | 0.0 | 0.0 | 0.00 | 0.00 | 0.00 | 94 | 1009.2 |
| 20260508085536 | 4 | 226 | 0.0 | 0.0 | 0.00 | 0.00 | 0.00 | 93 | 1009.3 |
| 20260508085034 | 4 | 228 | 0.0 | 0.0 | 0.00 | 0.00 | 0.00 | 93 | 1009.5 |
| 20260508084531 | 4 | 228 | 0.0 | 0.0 | 0.00 | 0.00 | 0.00 | 93 | 1009.2 |
| 20260508084028 | 5 | 199 | 0.0 | 0.0 | 0.00 | 0.00 | 0.00 | 92 | 1009.2 |
| 20260508083525 | 5 | 283 | 0.0 | 0.0 | 0.00 | 0.00 | 0.00 | 92 | 1009.2 |
| 20260508083022 | 5 | 248 | 0.0 | 0.0 | 0.00 | 0.00 | 0.00 | 91 | 1009.0 |
| 20260508082517 | 5 | 247 | 0.0 | 0.0 | 0.00 | 0.00 | 0.00 | 91 | 1009.3 |
| 20260508082015 | 5 | 231 | 0.0 | 0.0 | 0.00 | 0.00 | 0.00 | 91 | 1009.2 |
| 20260508081512 | 5 | 246 | 0.0 | 0.0 | 0.00 | 0.00 | 0.00 | 91 | 1009.3 |
| 20260508081008 | 5 | 228 | 0.0 | 0.0 | 0.00 | 0.00 | 0.00 | 90 | 1009.4 |
| 20260508080506 | 5 | 233 | 0.0 | 0.0 | 0.00 | 0.00 | 0.00 | 90 | 1009.3 |
| 20260508080004 | 5 | 232 | 0.0 | 0.0 | 0.00 | 0.00 | 0.00 | 90 | 1009.2 |
| 20260508075500 | 5 | 235 | 0.0 | 0.0 | 0.00 | 0.00 | 0.00 | 89 | 1009.4 |
| 20260508074958 | 5 | 231 | 0.0 | 0.0 | 0.00 | 0.00 | 0.00 | 89 | 1009.4 |
| 20260508074455 | 5 | 231 | 0.0 | 0.0 | 0.00 | 0.00 | 0.00 | 88 | 1009.4 |
| 20260508073951 | 5 | 247 | 0.0 | 0.0 | 0.00 | 0.00 | 0.00 | 88 | 1009.5 |
| 20260508073449 | 5 | 239 | 0.0 | 0.0 | 0.00 | 0.00 | 0.00 | 88 | 1009.5 |
| 20260508072945 | 5 | 239 | 0.0 | 0.0 | 0.00 | 0.00 | 0.00 | 88 | 1009.6 |
| 20260508072436 | 5 | 239 | 0.0 | 0.0 | 0.00 | 0.00 | 0.00 | 87 | 1009.9 |
| 20260508071934 | 6 | 239 | 0.0 | 0.0 | 0.00 | 0.00 | 0.00 | 87 | 1009.9 |
| 20260508071432 | 6 | 239 | 0.0 | 0.0 | 0.00 | 0.00 | 0.00 | 87 | 1009.7 |
| 20260508070929 | 6 | 239 | 0.0 | 0.0 | 0.00 | 0.00 | 0.00 | 86 | 1009.9 |
| 20260508070427 | 6 | 239 | 0.0 | 0.0 | 0.00 | 0.00 | 0.00 | 85 | 1010.1 |
| 20260508065924 | 6 | 239 | 0.0 | 0.0 | 0.00 | 0.00 | 0.00 | 85 | 1009.7 |
| 20260508065422 | 6 | 239 | 0.0 | 0.0 | 0.00 | 0.00 | 0.00 | 84 | 1009.8 |
| 20260508064920 | 6 | 238 | 0.0 | 0.0 | 0.00 | 0.00 | 0.00 | 84 | 1010.1 |
| 20260508064417 | 6 | 238 | 0.0 | 0.0 | 0.00 | 0.00 | 0.00 | 84 | 1009.7 |
| 20260508063915 | 6 | 239 | 0.0 | 0.0 | 0.00 | 0.00 | 0.00 | 84 | 1009.7 |
| 20260508063412 | 6 | 248 | 0.0 | 0.0 | 0.00 | 0.00 | 0.00 | 83 | 1009.7 |
| 20260508062909 | 6 | 248 | 0.0 | 0.0 | 0.00 | 0.00 | 0.00 | 83 | 1009.6 |
| 20260508062407 | 6 | 247 | 0.0 | 0.0 | 0.00 | 0.00 | 0.00 | 83 | 1009.8 |
| 20260508061904 | 6 | 248 | 0.0 | 0.0 | 0.00 | 0.00 | 0.00 | 84 | 1009.9 |
| 20260508061402 | 6 | 255 | 0.0 | 0.0 | 0.00 | 0.00 | 0.00 | 84 | 1009.8 |
| 20260508060857 | 6 | 254 | 0.0 | 0.0 | 0.00 | 0.00 | 0.00 | 84 | 1009.6 |
| 20260508060356 | 6 | 254 | 0.0 | 0.0 | 0.00 | 0.00 | 0.00 | 83 | 1009.7 |
| 20260508055856 | 6 | 254 | 0.0 | 0.0 | 0.00 | 0.00 | 0.00 | 82 | 1009.9 |
| 20260508055353 | 6 | 254 | 0.0 | 0.0 | 0.00 | 0.00 | 0.00 | 82 | 1009.8 |
| 20260508054850 | 6 | 248 | 0.0 | 0.0 | 0.00 | 0.00 | 0.00 | 82 | 1009.9 |
| 20260508054347 | 6 | 248 | 0.0 | 0.0 | 0.00 | 0.00 | 0.00 | 81 | 1009.9 |
| 20260508053844 | 7 | 248 | 0.0 | 0.0 | 0.00 | 0.00 | 0.00 | 80 | 1009.8 |
| 20260508053341 | 6 | 249 | 0.0 | 0.0 | 0.00 | 0.00 | 0.00 | 81 | 1009.9 |
| 20260508052838 | 6 | 248 | 0.0 | 0.0 | 0.00 | 0.00 | 0.00 | 80 | 1009.7 |
| 20260508052336 | 6 | 249 | 0.0 | 0.0 | 0.00 | 0.00 | 0.00 | 80 | 1009.9 |
| 20260508051832 | 6 | 245 | 0.0 | 0.0 | 0.00 | 0.00 | 0.00 | 79 | 1009.7 |
| 20260508051327 | 7 | 255 | 0.0 | 0.0 | 0.00 | 0.00 | 0.00 | 79 | 1009.8 |
| 20260508050824 | 7 | 254 | 0.0 | 0.0 | 0.00 | 0.00 | 0.00 | 78 | 1009.9 |
| 20260508050321 | 7 | 254 | 0.0 | 0.0 | 0.00 | 0.00 | 0.00 | 78 | 1009.9 |
| 20260508045822 | 7 | 204 | 0.0 | 0.0 | 0.00 | 0.00 | 0.00 | 78 | 1010.3 |
| 20260508045320 | 7 | 265 | 0.0 | 0.0 | 0.00 | 0.00 | 0.00 | 77 | 1010.1 |
| 20260508044817 | 7 | 274 | 0.0 | 0.0 | 0.00 | 0.00 | 0.00 | 77 | 1009.8 |
| 20260508044314 | 7 | 270 | 0.0 | 0.0 | 0.00 | 0.00 | 0.00 | 78 | 1010.1 |
| 20260508043810 | 7 | 256 | 0.0 | 0.0 | 0.00 | 0.00 | 0.00 | 78 | 1009.8 |
| 20260508043307 | 7 | 236 | 0.0 | 0.0 | 0.00 | 0.00 | 0.00 | 77 | 1009.8 |
| 20260508042804 | 7 | 247 | 0.0 | 0.0 | 0.00 | 0.00 | 0.00 | 78 | 1009.8 |
| 20260508042306 | 7 | 245 | 0.0 | 0.0 | 0.00 | 0.00 | 0.00 | 76 | 1009.7 |
| 20260508041758 | 7 | 269 | 0.0 | 0.0 | 0.00 | 0.00 | 0.00 | 76 | 1009.9 |
| 20260508041254 | 7 | 76 | 0.0 | 0.0 | 0.00 | 0.00 | 0.00 | 74 | 1009.6 |
| 20260508040751 | 7 | 76 | 0.0 | 0.0 | 0.00 | 0.00 | 0.00 | 74 | 1009.5 |
| 20260508040248 | 7 | 234 | 0.0 | 0.0 | 0.00 | 0.00 | 0.00 | 73 | 1009.7 |
| 20260508035746 | 7 | 231 | 0.0 | 0.0 | 0.00 | 0.00 | 0.00 | 73 | 1009.7 |
| 20260508035243 | 8 | 234 | 0.0 | 0.0 | 0.00 | 0.00 | 0.00 | 71 | 1009.7 |
| 20260508034739 | 8 | 235 | 0.0 | 0.0 | 0.00 | 0.00 | 0.00 | 71 | 1009.8 |
| 20260508034237 | 8 | 236 | 0.0 | 0.0 | 0.00 | 0.00 | 0.00 | 70 | 1009.8 |
| 20260508033734 | 8 | 231 | 0.0 | 0.0 | 0.00 | 0.00 | 0.00 | 69 | 1009.6 |
| 20260508033232 | 8 | 227 | 0.0 | 0.0 | 0.00 | 0.00 | 0.00 | 68 | 1009.9 |
| 20260508032729 | 8 | 111 | 0.0 | 0.0 | 0.00 | 0.00 | 0.00 | 67 | 1009.8 |
| 20260508032226 | 8 | 92 | 0.0 | 0.0 | 0.00 | 0.00 | 0.00 | 66 | 1009.8 |
| 20260508031723 | 8 | 243 | 0.0 | 0.0 | 0.00 | 0.00 | 0.00 | 66 | 1009.8 |
| 20260508031219 | 8 | 304 | 0.0 | 0.0 | 0.00 | 0.00 | 0.00 | 66 | 1009.9 |
| 20260508030716 | 8 | 314 | 0.0 | 0.0 | 0.00 | 0.00 | 0.00 | 66 | 1009.8 |
| 20260508030213 | 8 | 254 | 0.0 | 0.0 | 0.00 | 0.00 | 0.00 | 67 | 1009.9 |
| 20260508025709 | 8 | 255 | 0.0 | 0.0 | 0.00 | 0.00 | 0.00 | 68 | 1010.2 |
| 20260508025207 | 8 | 252 | 0.0 | 0.0 | 0.00 | 0.00 | 0.00 | 72 | 1009.9 |
| 20260508024702 | 8 | 246 | 0.0 | 0.0 | 0.00 | 0.00 | 0.00 | 68 | 1010.1 |
| 20260508024200 | 8 | 246 | 0.0 | 0.0 | 0.00 | 0.00 | 0.00 | 67 | 1010.1 |
| 20260508023656 | 8 | 265 | 0.0 | 0.0 | 0.00 | 0.00 | 0.00 | 71 | 1010.2 |
| 20260508023154 | 8 | 246 | 0.0 | 0.0 | 0.00 | 0.00 | 0.00 | 72 | 1010.2 |
| 20260508022649 | 8 | 246 | 0.0 | 0.0 | 0.00 | 0.00 | 0.00 | 66 | 1010.2 |
| 20260508022147 | 8 | 246 | 0.0 | 0.0 | 0.00 | 0.00 | 0.00 | 67 | 1010.2 |
| 20260508021643 | 8 | 246 | 0.0 | 0.0 | 0.00 | 0.00 | 0.00 | 63 | 1010.1 |
| 20260508021138 | 8 | 251 | 0.0 | 0.0 | 0.00 | 0.00 | 0.00 | 63 | 1009.9 |
| 20260508020636 | 8 | 251 | 0.0 | 0.0 | 0.00 | 0.00 | 0.00 | 64 | 1009.9 |
| 20260508020134 | 9 | 250 | 0.0 | 0.0 | 0.00 | 0.00 | 0.00 | 64 | 1010.1 |
| 20260508015631 | 9 | 162 | 0.0 | 1.6 | 0.00 | 0.00 | 0.00 | 64 | 1009.7 |
| 20260508015128 | 10 | 114 | 0.0 | 0.0 | 0.00 | 0.00 | 0.00 | 65 | 1009.7 |
| 20260508014624 | 10 | 290 | 0.0 | 0.0 | 0.00 | 0.00 | 0.00 | 60 | 1009.8 |
| 20260508014120 | 10 | 286 | 0.0 | 0.0 | 0.00 | 0.00 | 0.00 | 57 | 1010.3 |
| 20260508013617 | 10 | 308 | 1.6 | 1.6 | 0.00 | 0.00 | 0.00 | 57 | 1010.3 |
| 20260508013114 | 10 | 255 | 0.0 | 1.6 | 0.00 | 0.00 | 0.00 | 55 | 1009.8 |
| 20260508012611 | 10 | 38 | 0.0 | 0.0 | 0.00 | 0.00 | 0.00 | 51 | 1009.5 |
| 20260508012108 | 10 | 36 | 0.0 | 0.0 | 0.00 | 0.00 | 0.00 | 51 | 1009.7 |
| 20260508011607 | 10 | 104 | 0.0 | 1.6 | 0.00 | 0.00 | 0.00 | 50 | 1009.6 |
| 20260508011104 | 10 | 174 | 0.0 | 0.0 | 0.00 | 0.00 | 0.00 | 51 | 1009.6 |
| 20260508010600 | 10 | 174 | 0.0 | 0.0 | 0.00 | 0.00 | 0.00 | 55 | 1009.4 |
| 20260508010058 | 10 | 259 | 0.0 | 0.0 | 0.00 | 0.00 | 0.00 | 52 | 1009.6 |
| 20260508005554 | 10 | 184 | 0.0 | 1.6 | 0.00 | 0.00 | 0.00 | 52 | 1009.3 |
| 20260508005051 | 10 | 184 | 0.0 | 0.0 | 0.00 | 0.00 | 0.00 | 51 | 1009.1 |
| 20260508004547 | 10 | 178 | 1.6 | 1.6 | 0.00 | 0.00 | 0.00 | 51 | 1009.2 |
| 20260508004044 | 10 | 220 | 0.0 | 0.0 | 0.00 | 0.00 | 0.00 | 51 | 1009.1 |
| 20260508003540 | 10 | 220 | 0.0 | 0.0 | 0.00 | 0.00 | 0.00 | 49 | 1009.3 |
| 20260508003038 | 10 | 220 | 0.0 | 0.0 | 0.00 | 0.00 | 0.00 | 49 | 1009.3 |
| 20260508002534 | 10 | 220 | 0.0 | 0.0 | 0.00 | 0.00 | 0.00 | 49 | 1009.2 |
| 20260508002031 | 11 | 226 | 0.0 | 0.0 | 0.00 | 0.00 | 0.00 | 49 | 1009.2 |
| 20260508001527 | 11 | 226 | 0.0 | 0.0 | 0.00 | 0.00 | 0.00 | 48 | 1009.1 |
| 20260508001023 | 11 | 204 | 0.0 | 0.0 | 0.00 | 0.00 | 0.00 | 47 | 1009.0 |